#timestamp,LO_Frequency,Hit,StdDev 
1513965615.6,286046999.3,N
1513965635.4,286046998.2,N
1513965655.3,286046996.5,N
1513965675.1,286046996.9,N
1513965695.8,286046998.9,N
1513965715.7,286046998.2,N
1513965735.5,286046998.4,N
1513965755.4,286046998.8,N
1513965775.2,286046997.5,N
1513965795.0,286046998.0,N
1513965795.9,286046998.0,N
1513965815.8,286046996.4,N
1513965835.6,286046996.3,N
1513965855.5,286046995.7,N
1513965875.3,286046995.6,N
1513965895.1,286046995.7,N
1513965915.9,286046996.3,N
1513965935.7,286046993.4,Y
1513965955.5,286046999.5,P
1513965975.4,286046997.3,P
1513965995.2,286046997.3,P
1513966015.1,286046997.1,Y
1513966016.0,286046997.1,P
1513966035.8,286047000.3,N
1513966055.6,286046999.3,N
1513966075.5,286046998.9,N
1513966095.3,286046999.3,N
1513966115.2,286047000.6,N
1513966135.9,286047002.4,N
1513966155.7,286046998.3,N
1513966175.6,286047000.6,N
1513966195.4,286047000.1,N
1513966215.2,286047001.6,N
1513966235.1,286046998.1,N
1513966236.0,286046998.1,N
1513966255.8,286046998.1,N
1513966275.7,286046999.3,N
1513966295.5,286046998.9,N
1513966315.3,286046998.6,N
1513966335.2,286047001.0,N
1513966355.9,286047000.5,N
1513966375.7,286047000.5,N
1513966395.6,286046998.1,N
1513966415.4,286047000.7,N
1513966435.3,286047002.4,N
1513966455.1,286047000.7,N
1513966456.0,286047000.7,N
1513966475.8,286046999.5,N
1513966495.7,286046996.8,N
1513966515.5,286046997.4,N
1513966535.3,286046996.6,N
1513966555.2,286046998.0,N
1513966575.0,286046997.3,N
1513966575.9,286046997.3,N
1513966595.8,286046997.7,N
1513966615.6,286046996.9,N
1513966635.4,286046997.2,N
1513966655.3,286046997.4,N
1513966675.1,286046996.6,N
1513966695.9,286046998.5,N
1513966715.7,286046999.3,N
1513966735.5,286046996.6,N
1513966755.4,286046997.8,N
1513966775.2,286046997.8,N
1513966795.0,286046997.7,N
1513966795.9,286046997.7,N
1513966815.8,286046999.5,N
1513966835.6,286046997.0,N
1513966855.5,286046995.8,N
1513966875.3,286046995.4,N
1513966895.1,286046997.0,N
1513966915.9,286046998.9,N
1513966935.7,286046999.3,N
1513966955.6,286046999.4,N
1513966975.4,286046996.7,N
1513966995.2,286046997.6,N
1513967015.1,286046998.0,N
1513967016.0,286046998.0,N
1513967035.8,286046995.5,Y
1513967055.7,286046998.4,P
1513967075.5,286047000.5,N
1513967095.3,286047000.6,N
1513967115.2,286046998.1,N
1513967135.0,286046998.6,N
1513967135.9,286046998.6,N
1513967155.8,286047000.0,N
1513967175.6,286047000.5,N
1513967195.4,286047000.4,N
1513967215.3,286046998.3,N
1513967235.1,286047000.8,N
1513967255.9,286047000.6,N
1513967275.7,286047001.2,N
1513967295.5,286047002.8,N
1513967315.4,286047002.8,N
1513967335.2,286047000.1,N
1513967355.0,286047000.6,N
1513967355.9,286047000.6,N
1513967375.8,286046999.9,N
1513967395.6,286047001.9,N
1513967415.5,286047002.5,N
1513967435.3,286047000.2,N
1513967455.1,286046999.8,N
1513967475.9,286047000.0,N
1513967495.7,286046998.6,N
1513967515.5,286047002.8,N
1513967535.4,286047002.5,N
1513967555.2,286047002.6,N
1513967575.1,286046999.8,N
1513967576.0,286046999.8,N
1513967595.8,286047002.5,N
1513967615.6,286046999.9,N
1513967635.5,286047000.3,N
1513967655.3,286047000.3,N
1513967675.1,286047002.7,N
1513967695.9,286047000.6,N
1513967715.7,286047000.2,N
1513967735.6,286047000.0,N
1513967755.4,286047002.7,N
1513967775.2,286047001.9,N
1513967795.1,286047002.0,N
1513967796.0,286047002.0,N
1513967815.8,286047004.2,Y
1513967835.6,286047005.2,P
1513967855.5,286047005.6,N
1513967875.3,286047005.7,N
1513967895.2,286047005.5,N
1513967915.9,286047003.6,N
1513967935.7,286047003.5,N
1513967955.6,286047001.7,N
1513967975.4,286047003.1,N
1513967995.3,286047003.0,N
1513968015.1,286047004.2,N
1513968016.0,286047004.2,N
1513968035.8,286047004.3,N
1513968055.7,286047003.6,N
1513968075.5,286047001.8,N
1513968095.3,286047004.1,N
1513968115.2,286047005.7,Y
1513968135.0,286047002.1,P
1513968135.9,286047002.1,N
1513968155.8,286047000.0,N
1513968175.6,286046998.3,N
1513968195.4,286046999.0,N
1513968215.3,286046998.8,N
1513968235.1,286046998.7,N
1513968255.8,286046998.1,N
1513968275.7,286047000.4,N
1513968295.5,286046998.3,N
1513968315.4,286047000.0,N
1513968335.2,286047001.2,N
1513968355.0,286046998.4,N
1513968355.9,286046998.4,N
1513968375.8,286046999.9,N
1513968395.6,286046998.2,N
1513968415.4,286046998.5,N
1513968435.3,286046998.6,N
1513968455.1,286046999.9,N
1513968475.9,286047001.1,N
1513968495.7,286046999.5,N
1513968515.5,286046999.6,N
1513968535.4,286046996.9,N
1513968555.2,286046997.5,N
1513968575.1,286046996.5,N
1513968576.0,286046996.5,N
1513968595.8,286047000.7,N
1513968615.6,286047000.0,N
1513968635.5,286047001.1,N
1513968655.3,286047000.5,N
1513968675.1,286047001.2,N
1513968695.9,286047002.7,N
1513968715.7,286047002.3,N
1513968735.6,286047002.2,N
1513968755.4,286047000.5,N
1513968775.2,286047001.9,N
1513968795.1,286047004.1,N
1513968796.0,286047004.1,N
1513968815.8,286047001.9,N
1513968835.6,286047002.3,N
1513968855.5,286047002.4,N
1513968875.3,286047000.1,N
1513968895.2,286047000.6,N
1513968915.9,286047002.2,N
1513968935.7,286047002.6,N
1513968955.6,286047002.5,N
1513968975.4,286047000.1,N
1513968995.2,286047000.5,N
1513969015.1,286047000.0,N
1513969016.0,286047000.0,N
1513969035.8,286047000.0,N
1513969055.7,286047000.2,N
1513969075.5,286047001.1,N
1513969095.3,286047000.4,N
1513969115.2,286046999.9,N
1513969135.0,286047000.1,N
1513969135.9,286047000.1,N
1513969155.7,286047002.4,N
1513969175.6,286047000.2,N
1513969195.4,286047000.0,N
